Meteo pe oră la Bolshie Tupoly

Astăzi, 6 Mai, Joi

Timp Temperatura Precipitaţii Vânt Presiune Umiditate
00:00 +8°C° 1.1 mm 2 m/s 733 mmHg 96%
01:00 +7°C° 1.1 mm 2 m/s 733 mmHg 96%
02:00 +7°C° 0 mm 3 m/s 733 mmHg 96%
03:00 +6°C° 0.7 mm 4 m/s 733 mmHg 93%
04:00 +6°C° 0.7 mm 5 m/s 733 mmHg 89%
05:00 +4°C° 0.7 mm 6 m/s 734 mmHg 85%
06:00 +5°C° 0.2 mm 6 m/s 734 mmHg 85%
07:00 +5°C° 0.2 mm 6 m/s 735 mmHg 85%
08:00 +5°C° 0 mm 7 m/s 735 mmHg 86%
09:00 +5°C° 0.2 mm 7 m/s 735 mmHg 81%
10:00 +6°C° 0.2 mm 8 m/s 736 mmHg 77%
11:00 +6°C° 0.2 mm 8 m/s 736 mmHg 72%
12:00 +7°C° 0.1 mm 8 m/s 737 mmHg 64%
13:00 +9°C° 0.1 mm 8 m/s 737 mmHg 56%
14:00 +10°C° 0.1 mm 9 m/s 737 mmHg 49%
15:00 +9°C° 0.1 mm 8 m/s 738 mmHg 52%
16:00 +9°C° 0.1 mm 8 m/s 738 mmHg 55%
17:00 +8°C° 0.1 mm 7 m/s 738 mmHg 57%
18:00 +7°C° 0 mm 6 m/s 738 mmHg 62%
19:00 +6°C° 0 mm 4 m/s 738 mmHg 66%
20:00 +5°C° 0 mm 3 m/s 739 mmHg 70%
21:00 +4°C° 0 mm 3 m/s 739 mmHg 73%
22:00 +4°C° 0 mm 3 m/s 739 mmHg 76%
23:00 +3°C° 0 mm 4 m/s 739 mmHg 79%

Mâine, 7 Mai, Vineri

Timp Temperatura Precipitaţii Vânt Presiune Umiditate
00:00 +4°C° 0 mm 4 m/s 739 mmHg 80%
01:00 +4°C° 0 mm 3 m/s 739 mmHg 81%
02:00 +4°C° 0 mm 3 m/s 739 mmHg 82%
03:00 +4°C° 0 mm 3 m/s 739 mmHg 85%
04:00 +3°C° 0 mm 3 m/s 738 mmHg 89%
05:00 +3°C° 0 mm 3 m/s 738 mmHg 92%
06:00 +4°C° 0.1 mm 3 m/s 738 mmHg 88%
07:00 +5°C° 0.1 mm 3 m/s 739 mmHg 85%
08:00 +7°C° 0.1 mm 3 m/s 739 mmHg 82%
09:00 +7°C° 0.4 mm 3 m/s 738 mmHg 84%
10:00 +7°C° 0.4 mm 3 m/s 738 mmHg 86%
11:00 +7°C° 0.4 mm 3 m/s 738 mmHg 88%
12:00 +7°C° 0.5 mm 3 m/s 737 mmHg 89%
13:00 +8°C° 0.5 mm 3 m/s 737 mmHg 90%
14:00 +8°C° 0.5 mm 3 m/s 736 mmHg 92%
15:00 +8°C° 0.7 mm 3 m/s 736 mmHg 93%
16:00 +8°C° 0.7 mm 3 m/s 735 mmHg 94%
17:00 +8°C° 0.7 mm 3 m/s 735 mmHg 95%
18:00 +8°C° 0.1 mm 3 m/s 735 mmHg 95%
19:00 +7°C° 0.1 mm 3 m/s 735 mmHg 95%
20:00 +7°C° 0.1 mm 2 m/s 735 mmHg 96%
21:00 +7°C° 0.1 mm 2 m/s 735 mmHg 96%
22:00 +6°C° 0.1 mm 2 m/s 735 mmHg 97%
23:00 +5°C° 0.1 mm 3 m/s 735 mmHg 97%

Poimâine, 8 Mai, Sâmbătă

Timp Temperatura Precipitaţii Vânt Presiune Umiditate
00:00 +5°C° 0.2 mm 3 m/s 735 mmHg 97%
01:00 +4°C° 0.2 mm 4 m/s 735 mmHg 97%
02:00 +3°C° 0.2 mm 5 m/s 736 mmHg 96%
03:00 +2°C° 1.2 mm 5 m/s 736 mmHg 96%
04:00 +2°C° 1.2 mm 6 m/s 737 mmHg 96%
05:00 +1°C° 1.2 mm 6 m/s 738 mmHg 96%
06:00 +1°C° 0.1 mm 6 m/s 738 mmHg 93%
07:00 +2°C° 0.1 mm 6 m/s 739 mmHg 91%
08:00 +2°C° 0.1 mm 7 m/s 740 mmHg 88%
09:00 +3°C° 0 mm 7 m/s 741 mmHg 79%
10:00 +4°C° 0 mm 7 m/s 741 mmHg 71%
11:00 +5°C° 0 mm 7 m/s 742 mmHg 62%
12:00 +5°C° 0.1 mm 7 m/s 742 mmHg 64%
13:00 +6°C° 0.1 mm 7 m/s 743 mmHg 66%
14:00 +6°C° 0.1 mm 7 m/s 743 mmHg 67%
15:00 +6°C° 0.3 mm 7 m/s 743 mmHg 70%
16:00 +6°C° 0.3 mm 7 m/s 743 mmHg 74%
17:00 +6°C° 0.3 mm 7 m/s 744 mmHg 77%
18:00 +5°C° 0.2 mm 6 m/s 744 mmHg 80%
19:00 +5°C° 0.2 mm 5 m/s 744 mmHg 84%
20:00 +4°C° 0.2 mm 4 m/s 745 mmHg 88%
21:00 +3°C° 0 mm 4 m/s 745 mmHg 90%
22:00 +3°C° 0 mm 4 m/s 746 mmHg 92%
23:00 +2°C° 0 mm 3 m/s 746 mmHg 94%

9 Mai, Duminică

Timp Temperatura Precipitaţii Vânt Presiune Umiditate
00:00 +2°C° 0 mm 3 m/s 747 mmHg 95%
01:00 +1°C° 0 mm 3 m/s 747 mmHg 95%
02:00 +1°C° 0 mm 2 m/s 747 mmHg 95%
03:00 +1°C° 0 mm 2 m/s 748 mmHg 95%
04:00 +1°C° 0 mm 2 m/s 748 mmHg 95%
05:00 +1°C° 0 mm 2 m/s 749 mmHg 95%
06:00 +3°C° 0 mm 2 m/s 749 mmHg 89%
07:00 +4°C° 0 mm 2 m/s 750 mmHg 84%
08:00 +6°C° 0 mm 2 m/s 750 mmHg 79%
09:00 +8°C° 0 mm 2 m/s 750 mmHg 71%
10:00 +9°C° 0 mm 3 m/s 750 mmHg 63%
11:00 +11°C° 0 mm 3 m/s 750 mmHg 55%
12:00 +11°C° 0 mm 3 m/s 750 mmHg 52%
13:00 +12°C° 0 mm 3 m/s 750 mmHg 49%
14:00 +13°C° 0 mm 4 m/s 750 mmHg 46%
15:00 +13°C° 0 mm 3 m/s 750 mmHg 48%
16:00 +13°C° 0 mm 3 m/s 750 mmHg 51%
17:00 +13°C° 0 mm 3 m/s 750 mmHg 53%
18:00 +11°C° 0 mm 3 m/s 750 mmHg 60%
19:00 +10°C° 0 mm 3 m/s 750 mmHg 67%
20:00 +8°C° 0 mm 3 m/s 750 mmHg 74%
21:00 +8°C° 0 mm 3 m/s 750 mmHg 74%
22:00 +7°C° 0 mm 3 m/s 751 mmHg 74%
23:00 +6°C° 0 mm 4 m/s 751 mmHg 74%

10 Mai, Luni

Timp Temperatura Precipitaţii Vânt Presiune Umiditate
00:00 +5°C° 0 mm 4 m/s 751 mmHg 76%
01:00 +5°C° 0 mm 3 m/s 751 mmHg 78%
02:00 +4°C° 0 mm 3 m/s 751 mmHg 80%
03:00 +4°C° 0 mm 3 m/s 751 mmHg 80%
04:00 +4°C° 0 mm 3 m/s 752 mmHg 81%
05:00 +4°C° 0 mm 4 m/s 752 mmHg 81%
06:00 +6°C° 0 mm 4 m/s 752 mmHg 77%
07:00 +8°C° 0 mm 5 m/s 752 mmHg 72%
08:00 +10°C° 0 mm 5 m/s 752 mmHg 67%
09:00 +13°C° 0 mm 6 m/s 752 mmHg 63%
10:00 +14°C° 0 mm 6 m/s 752 mmHg 58%
11:00 +16°C° 0 mm 7 m/s 752 mmHg 54%
12:00 +16°C° 0 mm 7 m/s 752 mmHg 53%
13:00 +17°C° 0 mm 7 m/s 752 mmHg 51%
14:00 +18°C° 0 mm 7 m/s 752 mmHg 50%
15:00 +17°C° 0 mm 6 m/s 751 mmHg 53%
16:00 +17°C° 0 mm 6 m/s 751 mmHg 56%
17:00 +17°C° 0 mm 6 m/s 751 mmHg 58%
18:00 +15°C° 0 mm 5 m/s 751 mmHg 64%
19:00 +14°C° 0 mm 5 m/s 751 mmHg 70%
20:00 +12°C° 0 mm 4 m/s 751 mmHg 75%
21:00 +11°C° 0 mm 4 m/s 751 mmHg 75%
22:00 +10°C° 0 mm 5 m/s 751 mmHg 75%
23:00 +9°C° 0 mm 5 m/s 751 mmHg 75%

11 Mai, Marţi

Timp Temperatura Precipitaţii Vânt Presiune Umiditate
00:00 +9°C° 0 mm 5 m/s 751 mmHg 77%
01:00 +8°C° 0 mm 5 m/s 751 mmHg 78%
02:00 +8°C° 0 mm 5 m/s 751 mmHg 80%
03:00 +8°C° 0 mm 5 m/s 751 mmHg 80%
04:00 +7°C° 0 mm 5 m/s 751 mmHg 80%
05:00 +7°C° 0 mm 5 m/s 751 mmHg 80%
06:00 +8°C° 0 mm 6 m/s 751 mmHg 75%
07:00 +10°C° 0 mm 6 m/s 751 mmHg 71%
08:00 +11°C° 0 mm 6 m/s 751 mmHg 66%
09:00 +12°C° 0 mm 7 m/s 751 mmHg 61%
10:00 +15°C° 0 mm 7 m/s 751 mmHg 56%
11:00 +16°C° 0 mm 7 m/s 751 mmHg 50%
12:00 +16°C° 0 mm 7 m/s 751 mmHg 49%
13:00 +17°C° 0 mm 7 m/s 751 mmHg 48%
14:00 +18°C° 0 mm 7 m/s 751 mmHg 47%
15:00 +19°C° 0 mm 6 m/s 751 mmHg 49%
16:00 +19°C° 0 mm 6 m/s 750 mmHg 52%
17:00 +17°C° 0 mm 6 m/s 750 mmHg 55%
18:00 +16°C° 0 mm 5 m/s 750 mmHg 63%
19:00 +14°C° 0 mm 5 m/s 750 mmHg 70%
20:00 +13°C° 0 mm 4 m/s 750 mmHg 78%
21:00 +12°C° 0 mm 4 m/s 750 mmHg 79%
22:00 +12°C° 0 mm 4 m/s 750 mmHg 81%
23:00 +12°C° 0 mm 5 m/s 750 mmHg 82%
Arată mai mult

Formular de consimțământ

Meteoprog și furnizorii noștri de servicii pot stoca și accesa date personale, precum cookies, identificatori de dispozitiv sau alte tehnologii similare pe dispozitivul dumneavoastră și procesa astfel de date pentru a personaliza conținutul și reclamele, dar și pentru a oferi caracteristici de social media și pentru a analiza traficul.

  • Stocarea și/sau accesarea informațiilor pe dispozitivul dumneavoastră

    Cookies, identificatori de dispozitiv sau alte informații pot fi stocate sau accesate pe dispozitiv în scopurile indicate mai sus.

  • Reclame și conținut personalizat, evaluarea reclamelor și a conținutului, informații despre audiențe și dezvoltarea produselor

    Reclamele și conținutul pot fi personalizate pe baza unui profil. Pot fi adăugate date suplimentare pentru a personaliza mai bine reclamele și conținutul. Performanța reclamelor și conținutului poate fi măsurată. Pot fi obținute informații despre utilizatorii care au văzut reclamele și conținutul. Aceste date pot fi utilizate pentru a dezvolta sau îmbunătăți experiența utilizatorilor, sistemele și software-ul.

Dând clic pe ‘Sunt de acord’, permiteți utilizarea cookie-urilor menționate, a identificatorilor de dispozitiv, balizelor web sau altor tehnologii similare. Setările pot fi modificate din browser-ul dispozitivului dumneavoastră.

În anumite scopuri, interesele legitime pot prima asupra consimțământului. Puteți citi mai multe informații în acest sens în Politica privind Confidențialitatea Datelor și Cookie.